Volver al catálogo

UME 2

ISS-B

ActivoCienciaLEO
NORAD 10674·PAYLOAD·🇯🇵 Japan

Lanzado Feb 16, 1978 desde Tanegashima Space Center

Loading…

Próximos Pases (próximas 24 horas)

TLE

ActualizadoSource: Space-Track

Época: Sep 14, 2026, 11:07 UTC

1 10674U 78018A   26257.46358052 -.00000058  00000-0 -13013-4 0  9994
2 10674  69.3615  71.2530 0163814   6.3271  12.6709 13.43717134382631

Sigue UME 2 en tiempo real con AllMySat

Download on the App Store